Погода в Канацеи

Италия     46°28′30″N   11°46′28″E
темп.,
°C
ветер,
м/с
пор.,
м/с
влажн.,
%
обл.,
%
осадки,
мм/ч
давл.,
гПа
погр.,
м
24 мая, вт
вт2423:00+8ююв229756 0.9 101053
02:00+7ююв229844 1.3 100963
05:00+6юв229840 0.0 100954
08:00+9ююв1290100 0.0 1008267
11:00+14ююз125888 0.1 10071503
14:00+13ююз1267100 0.9 10071010
17:00+13ю2276100 1.6 1007804
20:00+10ююв2290100 2.6 100986
25 мая, ср
ср2523:00+8ююв2296100 1.1 101185
02:00+7ю1299100 2.8 101262
05:00+7ююз119690 0.5 101245
08:00+9юз1191100 0.6 1013265
11:00+10зюз128782 1.1 1015566
14:00+11зюз2386100 3.4 1015812
17:00+11зюз228698 2.2 1016630
20:00+9юз119436 4.0 101821
26 мая, чт
чт2623:00+6ю11943 0.5 102111
02:00+5ююв11945 0.5 102210
05:00+5юв119369 0.0 102211
08:00+10с11855 0.0 1022206
11:00+16з124920 0.0 10211430
14:00+15юз236348 0.8 10211168
17:00+15юз226224 2.3 10201178
20:00+11ююз118783 4.8 102213
27 мая, пт
пт2723:00+8св1195100 2.6 102427
02:00+7в119774 3.8 102419
05:00+7юв119499 0.4 102211
08:00+11зсз1185100 0.4 1022153
11:00+15з2265100 0.8 10201005
14:00+16з225782 1.8 10181415
17:00+16зсз126180 1.0 10171139
20:00+11с118965 2.2 101824
28 мая, сб
сб2823:00+8св119430 0.4 102012
02:00+8ссв119537 0.6 101820
05:00+6ссв1195100 0.0 101716
08:00+9ссв128745 0.0 1016208
11:00+15сз225644 0.1 10131199
14:00+16з135120 1.3 10111663
17:00+10с2392100 3.0 1012154
20:00+8с349566 4.0 1013316